Wind_Speed
39 39 38 38 37 36 36 35 34 32 30 29 28 28 29 30 31 32 33 34 35 35 35 35 34 33 33 33 33 33 34 34 34 33 34 34 33 33
38 38 37 36 35 34 33 31 30 29 28 27 26 26 27 28 30 32 33 35 37 37 36 35 35 35 35 35 36 36 35 35 35 35 35 35 36 36
35 34 34 33 32 30 29 27 26 25 24 24 24 25 27 28 29 30 31 33 34 35 35 34 33 33 34 34 35 36 36 36 36 36 36 37 37 37
30 30 29 28 26 25 25 24 23 22 22 22 23 25 26 27 27 28 29 30 31 32 32 31 31 31 32 32 33 34 35 36 37 38 39 40 40 40
27 27 26 26 24 24 23 22 21 22 23 23 24 24 24 24 25 25 25 25 25 26 28 30 30 31 32 33 34 35 36 38 39 41 41 42 43 43
24 25 25 25 24 23 22 21 22 22 22 22 22 23 23 22 21 20 20 21 22 23 25 26 28 30 32 33 35 37 38 40 42 43 44 45 46 47
23 23 23 23 23 23 22 21 21 21 21 20 20 19 18 17 17 16 17 18 20 21 23 25 27 29 31 33 36 38 40 42 44 45 46 47 49 50
21 22 23 23 23 22 22 21 20 19 18 17 16 15 15 15 15 15 16 17 19 20 22 24 26 28 30 32 35 37 39 42 44 46 48 50 51 52
18 21 22 21 20 20 20 19 17 16 15 15 14 14 13 13 13 14 15 16 18 20 22 24 26 28 30 33 36 38 40 43 45 47 48 50 51 52
16 18 18 18 17 18 17 16 15 13 13 13 12 12 11 11 12 13 14 16 17 19 21 24 26 28 30 33 36 38 41 43 45 47 48 49 50 50
14 14 15 15 15 15 14 13 12 11 11 10 9 9 9 9 10 11 12 14 15 18 20 22 24 26 29 31 34 36 39 41 44 46 47 48 48 49
14 13 13 13 13 13 12 11 11 9 8 8 8 8 8 8 9 9 10 12 14 15 17 19 21 24 26 29 31 33 35 37 39 41 42 44 45 46
13 12 12 13 12 11 11 10 9 8 8 7 7 6 6 6 7 7 8 10 11 13 15 17 20 22 25 27 29 31 32 33 34 35 36 37 39 40
13 13 14 13 12 11 11 10 9 8 7 6 5 5 4 4 4 5 6 7 9 12 14 17 20 22 25 27 29 30 30 30 30 31 32 32 33 34
14 14 13 13 12 11 11 10 9 8 7 6 5 4 3 2 2 3 5 7 9 12 15 18 21 23 25 27 28 28 28 28 28 27 28 28 28 28
15 14 13 12 12 11 10 9 9 8 6 6 5 4 2 1 1 2 4 7 10 13 16 19 22 24 26 27 27 26 26 26 26 26 25 24 24 24
16 15 13 12 11 11 10 9 9 8 7 7 6 4 3 2 0 2 5 7 10 14 17 19 22 25 27 27 27 26 25 24 23 23 23 23 23 23
16 14 13 12 11 11 10 10 10 9 9 8 7 5 3 2 1 3 5 8 11 14 17 20 22 25 27 28 28 28 26 24 22 21 21 20 20 21
15 14 13 12 11 11 11 11 11 10 10 9 7 6 4 3 2 4 6 9 12 15 18 20 22 25 27 29 29 29 28 26 24 22 20 19 19 19
16 14 13 12 12 11 11 11 12 12 11 10 9 7 6 5 5 6 8 10 13 15 18 20 22 24 26 28 28 29 29 28 26 24 22 20 19 18
16 15 14 13 12 12 12 12 13 13 13 12 11 9 9 9 9 10 11 13 15 17 18 20 22 24 26 27 28 29 29 29 28 26 24 22 21 19
16 15 14 14 13 13 13 14 14 14 14 14 13 12 12 12 13 14 15 16 17 18 20 21 22 24 26 27 29 29 30 30 30 29 27 25 23 21
16 15 15 15 14 14 14 15 15 15 16 16 15 15 16 16 17 18 18 19 20 20 22 23 24 25 26 28 29 30 31 31 32 32 30 28 26 24
Wind_Direction
268 268 268 267 267 267 267 267 266 267 267 265 262 256 252 247 244 245 245 240 238 237 236 236 236 237 238 237 239 241 242 242 241 241 243 245 246 247
266 266 266 266 266 265 264 263 263 262 260 258 254 250 248 248 245 245 245 241 238 236 234 234 234 236 238 239 240 241 242 243 243 244 245 247 249 249
265 264 264 263 262 259 258 257 255 254 254 250 247 247 248 249 248 248 245 242 239 236 234 234 235 238 241 242 243 244 247 248 248 248 250 250 250 250
261 261 259 256 253 251 250 246 246 246 244 242 243 246 249 252 251 248 244 242 242 241 240 240 241 243 245 247 250 251 252 253 253 253 253 253 253 252
257 256 252 247 245 245 243 241 240 240 240 240 243 247 249 251 249 249 248 248 249 249 248 247 247 248 249 250 252 254 255 256 256 256 256 256 256 256
251 250 246 242 243 240 236 235 236 235 235 237 241 244 246 248 249 249 250 253 254 255 256 256 256 256 256 256 256 256 257 258 258 258 259 259 258 258
248 243 241 240 237 232 232 232 234 233 234 237 239 240 243 245 248 250 254 257 259 260 261 262 263 264 265 264 263 263 262 262 262 261 261 261 260 260
247 241 238 236 232 229 227 230 232 232 231 233 235 238 242 246 249 254 258 261 265 267 268 269 270 270 270 270 270 269 268 267 266 265 264 263 262 261
243 235 232 231 229 225 221 224 225 225 228 232 236 238 242 247 253 259 264 268 271 273 274 276 276 276 276 276 275 274 272 271 269 268 266 265 263 262
236 229 227 224 222 217 213 213 217 222 225 230 235 238 244 251 257 263 269 272 276 278 280 281 282 281 281 280 279 277 275 274 272 270 268 267 265 263
221 221 218 216 214 212 208 207 210 214 219 223 227 234 243 253 263 270 274 278 283 286 289 290 290 290 288 286 285 283 281 278 275 272 270 268 266 264
211 207 203 199 196 195 196 198 201 203 206 212 221 231 243 253 263 273 281 287 292 296 298 300 300 300 299 297 295 292 289 286 282 278 274 270 266 264
194 189 186 184 184 184 186 190 191 195 202 211 222 232 245 259 273 285 294 301 307 312 315 316 315 313 311 308 304 300 296 292 288 283 279 274 269 265
186 183 182 181 181 182 183 186 189 195 201 208 214 224 239 258 282 303 319 327 332 335 335 333 330 326 322 317 312 307 301 296 292 287 283 279 273 268
180 179 181 182 183 184 186 190 194 198 202 203 204 209 217 256 299 330 346 348 349 350 348 345 342 338 333 327 320 314 307 301 295 292 287 280 275 270
181 182 183 184 186 189 193 196 198 199 200 199 197 196 202 227 279 354 1 1 358 355 353 351 350 347 343 338 332 324 316 308 301 297 293 284 277 270
182 185 186 188 192 196 199 201 201 201 202 201 199 197 197 201 280 0 2 360 357 356 355 355 354 354 352 347 342 335 327 319 311 305 300 292 282 275
186 188 192 197 200 202 204 205 205 204 203 201 199 199 203 210 288 354 357 356 354 355 355 355 355 355 355 353 350 345 339 331 323 316 310 302 293 282
190 193 198 203 206 209 210 210 209 208 207 206 205 210 221 236 276 325 340 344 347 350 353 354 355 356 356 355 354 352 347 342 335 328 319 312 304 292
194 198 203 208 211 214 214 214 214 213 212 214 218 226 240 257 281 307 323 332 336 341 345 348 350 352 353 354 354 354 352 348 343 337 329 320 311 302
199 203 208 212 216 220 220 220 220 220 221 225 230 239 254 270 285 298 310 319 327 332 336 340 343 345 348 350 351 352 352 351 348 343 336 328 319 309
205 210 215 219 222 226 227 227 228 228 229 234 241 249 262 275 286 294 302 309 317 323 327 330 333 337 342 345 347 348 349 349 347 344 338 332 324 315
211 217 222 226 229 231 233 234 235 236 237 242 249 257 265 276 285 292 297 303 309 314 319 322 325 329 334 338 341 343 344 344 343 341 337 331 325 317
Height
5730 5731 5732 5732 5733 5734 5736 5737 5739 5740 5741 5741 5742 5742 5744 5746 5748 5750 5752 5754 5757 5760 5763 5766 5769 5772 5775 5778 5780 5783 5785 5787 5790 5792 5794 5796 5798 5800
5719 5720 5721 5722 5723 5724 5726 5727 5729 5731 5732 5733 5734 5735 5737 5738 5740 5742 5744 5746 5748 5751 5753 5757 5760 5763 5766 5769 5771 5774 5776 5778 5780 5783 5785 5787 5789 5791
5708 5709 5710 5712 5713 5715 5717 5719 5721 5723 5724 5726 5727 5729 5730 5732 5733 5735 5736 5738 5740 5742 5745 5748 5751 5754 5757 5760 5762 5765 5767 5769 5771 5773 5775 5777 5779 5781
5698 5699 5701 5703 5705 5707 5709 5711 5714 5716 5718 5719 5721 5723 5724 5726 5727 5728 5730 5731 5733 5735 5738 5740 5743 5746 5748 5751 5753 5755 5758 5760 5762 5763 5765 5767 5769 5770
5690 5691 5693 5695 5698 5700 5703 5705 5707 5710 5712 5714 5716 5717 5719 5720 5721 5723 5724 5726 5728 5730 5732 5734 5736 5738 5741 5743 5745 5746 5748 5750 5751 5753 5754 5756 5757 5759
5682 5684 5686 5688 5691 5694 5697 5699 5702 5704 5706 5708 5710 5712 5714 5715 5717 5718 5720 5722 5723 5725 5727 5728 5730 5732 5733 5734 5736 5737 5738 5739 5740 5741 5742 5743 5745 5746
5676 5678 5681 5683 5685 5688 5691 5694 5697 5699 5701 5703 5705 5707 5709 5710 5712 5714 5715 5717 5718 5719 5721 5722 5723 5724 5725 5726 5726 5727 5727 5727 5728 5728 5729 5730 5731 5732
5671 5673 5675 5678 5681 5683 5686 5689 5691 5694 5696 5698 5700 5703 5704 5706 5708 5709 5711 5712 5713 5714 5714 5715 5716 5716 5716 5716 5716 5716 5716 5715 5715 5715 5715 5715 5716 5717
5667 5669 5672 5674 5677 5678 5681 5683 5686 5689 5692 5695 5697 5698 5700 5702 5703 5705 5706 5707 5707 5707 5708 5708 5708 5708 5707 5706 5705 5704 5703 5702 5701 5701 5700 5700 5700 5701
5664 5666 5668 5670 5673 5675 5677 5680 5683 5686 5688 5691 5693 5695 5697 5698 5699 5700 5701 5701 5701 5701 5701 5701 5700 5699 5698 5696 5694 5693 5691 5689 5687 5686 5685 5684 5684 5685
5660 5663 5665 5667 5669 5672 5675 5677 5680 5683 5685 5687 5689 5691 5693 5694 5695 5696 5696 5696 5696 5696 5695 5693 5692 5690 5688 5686 5683 5681 5678 5675 5673 5671 5670 5669 5669 5669
5657 5660 5662 5665 5667 5670 5673 5675 5678 5680 5683 5685 5687 5689 5690 5691 5692 5692 5692 5692 5691 5690 5689 5687 5684 5682 5679 5676 5672 5669 5666 5662 5659 5657 5655 5654 5653 5653
5655 5657 5660 5663 5666 5669 5671 5674 5676 5679 5681 5683 5684 5686 5687 5687 5688 5688 5688 5687 5686 5685 5683 5681 5678 5674 5671 5667 5663 5659 5655 5651 5647 5645 5642 5641 5640 5640
5653 5656 5659 5662 5665 5667 5670 5673 5675 5677 5679 5681 5682 5683 5684 5684 5684 5684 5684 5683 5682 5680 5677 5675 5672 5668 5664 5659 5655 5650 5646 5642 5638 5635 5632 5630 5629 5628
5651 5654 5657 5660 5663 5666 5668 5671 5673 5675 5677 5678 5680 5681 5681 5682 5682 5681 5681 5679 5678 5676 5673 5670 5667 5663 5658 5653 5648 5642 5638 5634 5630 5627 5624 5622 5620 5619
5649 5653 5656 5659 5662 5664 5667 5669 5671 5673 5674 5676 5677 5678 5679 5679 5679 5678 5678 5676 5675 5673 5670 5667 5663 5658 5653 5648 5642 5636 5632 5627 5623 5620 5617 5615 5613 5612
5647 5651 5654 5657 5660 5662 5665 5667 5669 5671 5672 5674 5675 5676 5676 5676 5676 5676 5675 5674 5672 5670 5667 5663 5659 5654 5649 5643 5637 5632 5627 5622 5618 5614 5611 5609 5607 5605
5645 5648 5651 5654 5657 5660 5662 5664 5666 5668 5670 5671 5672 5673 5674 5674 5674 5673 5672 5671 5669 5666 5663 5660 5656 5651 5646 5640 5634 5628 5623 5618 5614 5610 5606 5604 5602 5600
5642 5645 5648 5651 5654 5657 5659 5662 5664 5665 5667 5668 5670 5671 5671 5671 5671 5671 5669 5668 5666 5663 5660 5656 5652 5648 5643 5638 5632 5626 5620 5615 5610 5606 5603 5600 5597 5596
5639 5642 5646 5649 5651 5654 5656 5658 5660 5662 5664 5665 5667 5668 5668 5668 5668 5667 5666 5665 5662 5660 5657 5653 5649 5645 5640 5636 5630 5624 5618 5613 5608 5603 5600 5596 5594 5592
5636 5639 5643 5646 5648 5651 5653 5655 5657 5659 5661 5662 5663 5664 5664 5665 5664 5664 5662 5661 5659 5656 5653 5650 5646 5642 5637 5633 5628 5622 5617 5611 5606 5601 5597 5593 5591 5588
5633 5636 5639 5642 5645 5647 5649 5652 5654 5655 5657 5658 5659 5660 5660 5660 5660 5659 5658 5656 5654 5652 5649 5645 5642 5638 5634 5629 5624 5619 5614 5609 5603 5599 5594 5590 5587 5584
5629 5633 5636 5638 5641 5643 5645 5647 5649 5651 5652 5654 5655 5655 5655 5655 5655 5654 5652 5651 5649 5646 5643 5640 5637 5633 5629 5625 5620 5615 5610 5605 5600 5595 5591 5586 5583 5580